Regional Weather Roundup
Issued by NWS

Home | Current Version | Previous Version | Text Only | Print | Product List | Glossary Off
Versions: 1 2 3 4 5 6 7 8 9 10 11 12 13 14 15 16 17 18 19 20 21 22 23 24 25 26 27 28 29 30 31 32 33 34 35 36 37 38 39 40 41 42 43 44 45 46 47 48 49 50

000
ASUS45 KTFX 301410
RWRMT
MONTANA REGIONAL WEATHER ROUNDUP
NATIONAL WEATHER SERVICE GREAT FALLS MT
800 AM MDT SUN AUG 30 2015

NOTE: "FAIR" INDICATES FEW OR NO CLOUDS BELOW 12000 FEET WITH NO
SIGNIFICANT WEATHER AND/OR OBSTRUCTIONS TO VISIBILITY.

MTZ001>007-043-301500-
WEST OF THE DIVIDE

CITY           SKY/WX    TMP DP  RH WIND       PRES   REMARKS
KALISPELL      MOSUNNY   58  51  78 S9        29.87R
MISSOULA       CLOUDY    54  51  90 W7        29.91R
BUTTE          CLOUDY    55  45  68 CALM      29.99R
MULLAN PASS    PTCLDY    46  38  73 VRB3      29.96F
DEER LODGE       N/A     55  50  82 CALM      29.98R
EUREKA           N/A     59  45  58 SE9         N/A
HAMILTON         N/A     55  52  88 S2        29.91R
LIBBY            N/A     48  45  87 CALM      29.86S
PLAINS           N/A     53  48  83 MISG      29.90S
$$

MTZ008-052>055-301500-
SOUTHWEST MONTANA

CITY           SKY/WX    TMP DP  RH WIND       PRES   REMARKS
BOZEMAN        CLOUDY    58  52  80 NE8       30.01S
DILLON         CLOUDY    56  47  71 SW3       29.96S
W YELLOWSTONE  CLOUDY    48  48 100 SW5       30.10R
$$

MTZ009-010-012-014-046-048-049-054-301500-
EAST SLOPES AND CENTRAL MONTANA

CITY           SKY/WX    TMP DP  RH WIND       PRES   REMARKS
CUT BANK       CLOUDY    59  41  51 W13       29.83S
GREAT FALLS    CLOUDY    62  51  67 S8        29.82F HAZE
HELENA         CLOUDY    63  48  58 W8        29.88F
CONRAD           N/A     57  57 100 SW2       29.87F
$$

MTZ011-013-016-021-045-047-050-051-301500-
NORTH CENTRAL MONTANA

CITY           SKY/WX    TMP DP  RH WIND       PRES   REMARKS
HAVRE          CLOUDY    63  50  62 MISG      29.81R
LEWISTOWN      RAIN      60  52  74 NW9       29.93R
N BAR RANCH      N/A     66  46  48 CALM      29.89R
CHINOOK          N/A     63  52  67 SW3       29.81R
FORT BENTON      N/A     61  54  77 SE3       29.84R
$$

MTZ017>020-022>027-061-062-301500-
NORTHEAST MONTANA

CITY           SKY/WX    TMP DP  RH WIND       PRES   REMARKS
GLASGOW        PTSUNNY   73  46  38 N16       29.69S HAZE
JORDAN           N/A     69  50  50 NW5       29.74S
SIDNEY         PTSUNNY   70  55  60 NW3       29.64R
WOLF POINT     CLOUDY    68  52  56 W7        29.68R HAZE
MALTA            N/A     66  54  65 SW7       29.72R
PLENTYWOOD       N/A     70  54  56 CALM      29.64F
POPLAR           N/A     70  52  52 W6        29.68R
$$

MTZ028>42-056>058-301500-
SOUTHCENTRAL AND SOUTHEAST MONTANA

CITY           SKY/WX    TMP DP  RH WIND       PRES   REMARKS
BAKER          CLOUDY    75  46  35 N3        29.74F
BILLINGS       CLOUDY    76  46  34 SW6       29.81R
LIVINGSTON     CLOUDY    62  51  67 NW8       30.00R
MILES CITY     CLOUDY    75  45  34 N9        29.71S
EKALAKA          N/A     76  38  25 SW6       29.80S
FORSYTH          N/A     72  46  40 CALM      29.72R
LAUREL           N/A     73  45  36 CALM      29.83R
$$

REGIONAL REPORTS...DAKOTAS

CITY           SKY/WX    TMP DP  RH WIND       PRES   REMARKS
WILLISTON      PTSUNNY   70  54  56 CALM      29.64F
MINOT          CLOUDY    72  59  63 SE5       29.65F
CROSBY           N/A     68  55  64 S6        29.63F
BISMARCK       MOSUNNY   70  62  76 SE8       29.73F
GRAND FORKS    PTSUNNY   64  63  94 S14G21    29.77S
FARGO          SUNNY     67  62  84 S15       29.83S
BUFFALO SD       N/A     70  50  49 S9        29.71R
RAPID CITY     SUNNY     67  51  56 SE6       29.84S
$$

REGIONAL REPORTS...WYOMING/IDAHO/WASHINGTON

CITY           SKY/WX    TMP DP  RH WIND       PRES   REMARKS
GILLETTE       CLOUDY    77  36  22 SW13G24   29.89R
SHERIDAN       CLOUDY    68  45  43 S5        29.83F
BUFFALO WY     CLOUDY    72  40  31 CALM      29.93R
CODY           CLOUDY    68  46  45 S13       29.92S
YELLOWSTONE LA   N/A     48  47  96 CALM      30.18R
IDAHO FALLS    MOSUNNY   61  49  64 SW14      30.01R
SALMON         SUNNY     63  45  51 S3        29.92R
BOISE          CLEAR     59  44  57 CALM      29.97R
SPOKANE        CLOUDY    54  44  69 S7        29.84S
$$

REGIONAL REPORTS...ALBERTA

CITY           SKY/WX    TMP DP  RH WIND       PRES   REMARKS
EDMONTON       SUNNY     54  45  71 W5        29.49F
CALGARY        MOSUNNY   52  39  62 S7        29.64R
LETHBRIDGE     PTSUNNY   63  39  42 SW16      29.73F
MEDICINE HAT   PTSUNNY   64  43  45 SW16G23   29.72R
WATERTON GATE    N/A     57  34  41 SW23G36     N/A
CARDSTON         N/A     59  36  41 SW9         N/A
MILK RIVER       N/A     61  37  41 SW18G25     N/A
ONEFOUR          N/A     59  50  72 NW10        N/A
$$

REGIONAL REPORTS...SASKATCHEWAN

CITY           SKY/WX    TMP DP  RH WIND       PRES   REMARKS
SWIFT CURRENT  SUNNY     68  43  40 W9        29.70F
REGINA         CLOUDY    66  54  63 VRB2      29.65S SMOKE
SASKATOON      PTSUNNY   61  55  82 SW9       29.61F SMOKE
CYPRESS HILLS    N/A     63  36  36 W14G20      N/A
VAL MARIE        N/A     61  55  82 SW2         N/A
ROCKGLEN         N/A     68  45  42 W15G23      N/A
ASSINIBOIA       N/A     48  45  87 S6          N/A
$$


USA.gov is the U.S. government's official web portal to all federal, state and local government web resources and services.